| time (UTC) | temp C | wind direction | speed KPH | gust KPH | rain 1hr cm | rain 24hr cm | rain mn cm | humidity % | barometer mb |
| 20260906100930 | 22 | 60 | 0.0 | 3.2 | 0.00 | 0.00 | 0.00 | 97 | 1013.8 |
| 20260906100429 | 22 | 15 | 0.0 | 1.6 | 0.00 | 0.00 | 0.00 | 97 | 1013.6 |
| 20260906095924 | 22 | 17 | 0.0 | 0.0 | 0.00 | 0.00 | 0.00 | 96 | 1013.6 |
| 20260906095420 | 22 | 40 | 0.0 | 3.2 | 0.00 | 0.00 | 0.00 | 96 | 1013.6 |
| 20260906094920 | 22 | 37 | 0.0 | 0.0 | 0.00 | 0.00 | 0.00 | 96 | 1013.6 |
| 20260906094414 | 22 | 352 | 0.0 | 0.0 | 0.00 | 0.00 | 0.00 | 96 | 1013.6 |
| 20260906093910 | 22 | 315 | 0.0 | 1.6 | 0.00 | 0.00 | 0.00 | 96 | 1013.8 |
| 20260906093407 | 22 | 55 | 0.0 | 1.6 | 0.00 | 0.00 | 0.00 | 96 | 1013.7 |
| 20260906092907 | 22 | 40 | 0.0 | 1.6 | 0.00 | 0.00 | 0.00 | 96 | 1013.6 |
| 20260906092406 | 23 | 297 | 0.0 | 1.6 | 0.00 | 0.00 | 0.00 | 96 | 1013.6 |
| 20260906091902 | 23 | 50 | 0.0 | 0.0 | 0.00 | 0.00 | 0.00 | 96 | 1013.5 |
| 20260906091358 | 23 | 322 | 0.0 | 1.6 | 0.00 | 0.00 | 0.00 | 95 | 1013.6 |
| 20260906090854 | 23 | 37 | 0.0 | 1.6 | 0.00 | 0.00 | 0.00 | 95 | 1013.6 |
| 20260906090353 | 23 | 50 | 0.0 | 3.2 | 0.00 | 0.00 | 0.00 | 95 | 1013.7 |
| 20260906085848 | 23 | 297 | 0.0 | 0.0 | 0.00 | 0.00 | 0.00 | 95 | 1013.7 |
| 20260906085347 | 23 | 308 | 0.0 | 1.6 | 0.00 | 0.00 | 0.00 | 95 | 1013.7 |
| 20260906084842 | 23 | 320 | 1.6 | 1.6 | 0.00 | 0.00 | 0.00 | 95 | 1013.5 |
| 20260906084342 | 23 | 22 | 0.0 | 1.6 | 0.00 | 0.00 | 0.00 | 95 | 1013.4 |
| 20260906083836 | 23 | 322 | 0.0 | 1.6 | 0.00 | 0.00 | 0.00 | 94 | 1013.5 |
| 20260906083333 | 23 | 269 | 0.0 | 1.6 | 0.00 | 0.00 | 0.00 | 95 | 1013.4 |
| 20260906082832 | 23 | 269 | 0.0 | 3.2 | 0.00 | 0.00 | 0.00 | 94 | 1013.3 |
| 20260906082327 | 23 | 269 | 0.0 | 3.2 | 0.00 | 0.00 | 0.00 | 94 | 1013.3 |
| 20260906081823 | 23 | 25 | 0.0 | 1.6 | 0.00 | 0.00 | 0.00 | 94 | 1013.4 |
| 20260906081319 | 23 | 247 | 0.0 | 3.2 | 0.00 | 0.00 | 0.00 | 94 | 1013.2 |
| 20260906080814 | 23 | 63 | 1.6 | 4.8 | 0.00 | 0.00 | 0.00 | 95 | 1013.3 |
| 20260906080311 | 23 | 306 | 0.0 | 3.2 | 0.00 | 0.00 | 0.00 | 95 | 1013.2 |
| 20260906075810 | 23 | 154 | 0.0 | 3.2 | 0.00 | 0.00 | 0.00 | 95 | 1013.1 |
| 20260906075310 | 23 | 56 | 1.6 | 4.8 | 0.00 | 0.00 | 0.00 | 96 | 1013.3 |
| 20260906074805 | 23 | 25 | 0.0 | 1.6 | 0.00 | 0.00 | 0.00 | 95 | 1013.5 |
| 20260906074305 | 23 | 32 | 0.0 | 3.2 | 0.00 | 0.00 | 0.00 | 96 | 1013.5 |
| 20260906073804 | 23 | 36 | 0.0 | 1.6 | 0.00 | 0.00 | 0.00 | 96 | 1013.6 |
| 20260906073259 | 23 | 82 | 3.2 | 4.8 | 0.00 | 0.00 | 0.00 | 96 | 1013.5 |
| 20260906072755 | 23 | 89 | 1.6 | 3.2 | 0.00 | 0.00 | 0.00 | 96 | 1013.7 |
| 20260906072250 | 23 | 37 | 0.0 | 0.0 | 0.00 | 0.00 | 0.00 | 95 | 1013.4 |
| 20260906071746 | 23 | 55 | 0.0 | 1.6 | 0.00 | 0.00 | 0.00 | 95 | 1013.0 |
| 20260906071246 | 23 | 50 | 0.0 | 0.0 | 0.00 | 0.00 | 0.00 | 95 | 1012.9 |
| 20260906070743 | 23 | 22 | 0.0 | 0.0 | 0.00 | 0.00 | 0.00 | 96 | 1012.9 |
| 20260906070238 | 23 | 25 | 0.0 | 0.0 | 0.00 | 0.00 | 0.00 | 96 | 1012.8 |
| 20260906065737 | 23 | 297 | 0.0 | 0.0 | 0.00 | 0.00 | 0.00 | 96 | 1012.9 |
| 20260906065233 | 23 | 322 | 0.0 | 1.6 | 0.00 | 0.00 | 0.00 | 95 | 1013.0 |
| 20260906064728 | 23 | 37 | 0.0 | 1.6 | 0.00 | 0.00 | 0.00 | 96 | 1013.0 |
| 20260906064224 | 23 | 37 | 0.0 | 1.6 | 0.00 | 0.00 | 0.00 | 96 | 1013.0 |
| 20260906063719 | 23 | 74 | 1.6 | 3.2 | 0.00 | 0.00 | 0.00 | 96 | 1013.2 |
| 20260906063215 | 23 | 62 | 0.0 | 3.2 | 0.00 | 0.00 | 0.00 | 95 | 1013.1 |
| 20260906062710 | 23 | 63 | 3.2 | 3.2 | 0.00 | 0.00 | 0.00 | 95 | 1013.4 |
| 20260906062209 | 23 | 82 | 1.6 | 3.2 | 0.00 | 0.00 | 0.00 | 95 | 1013.5 |
| 20260906061705 | 23 | 47 | 0.0 | 1.6 | 0.00 | 0.00 | 0.00 | 95 | 1013.7 |
| 20260906061200 | 23 | 20 | 0.0 | 0.0 | 0.00 | 0.00 | 0.00 | 95 | 1013.3 |
| 20260906060656 | 23 | 41 | 0.0 | 1.6 | 0.00 | 0.00 | 0.00 | 94 | 1013.6 |
| 20260906060153 | 23 | 25 | 0.0 | 1.6 | 0.00 | 0.00 | 0.00 | 94 | 1013.5 |
| 20260906055649 | 23 | 50 | 0.0 | 0.0 | 0.00 | 0.00 | 0.00 | 94 | 1013.6 |
| 20260906055144 | 23 | 66 | 0.0 | 1.6 | 0.00 | 0.00 | 0.00 | 94 | 1013.6 |
| 20260906054639 | 23 | 309 | 0.0 | 0.0 | 0.00 | 0.00 | 0.00 | 93 | 1013.7 |
| 20260906054134 | 24 | 297 | 0.0 | 3.2 | 0.00 | 0.00 | 0.00 | 93 | 1013.9 |
| 20260906053631 | 24 | 280 | 0.0 | 3.2 | 0.00 | 0.00 | 0.00 | 93 | 1013.9 |
| 20260906053125 | 23 | 15 | 0.0 | 0.0 | 0.00 | 0.00 | 0.00 | 94 | 1013.9 |
| 20260906052621 | 23 | 85 | 0.0 | 1.6 | 0.00 | 0.00 | 0.00 | 94 | 1014.0 |
| 20260906052118 | 23 | 89 | 0.0 | 0.0 | 0.00 | 0.00 | 0.00 | 94 | 1013.8 |
| 20260906051613 | 23 | 37 | 0.0 | 1.6 | 0.00 | 0.00 | 0.00 | 93 | 1014.0 |
| 20260906051108 | 23 | 309 | 0.0 | 1.6 | 0.00 | 0.00 | 0.00 | 93 | 1013.9 |
| 20260906050604 | 23 | 278 | 0.0 | 1.6 | 0.00 | 0.00 | 0.00 | 93 | 1013.7 |
| 20260906050059 | 23 | 310 | 0.0 | 0.0 | 0.00 | 0.00 | 0.00 | 93 | 1013.8 |
| 20260906045557 | 23 | 310 | 0.0 | 1.6 | 0.00 | 0.00 | 0.00 | 93 | 1013.8 |
| 20260906045053 | 23 | 297 | 0.0 | 0.0 | 0.00 | 0.00 | 0.00 | 93 | 1014.0 |
| 20260906044548 | 24 | 297 | 0.0 | 0.0 | 0.00 | 0.00 | 0.00 | 92 | 1013.9 |
| 20260906044043 | 24 | 309 | 0.0 | 0.0 | 0.00 | 0.00 | 0.00 | 92 | 1014.1 |
| 20260906043539 | 24 | 321 | 0.0 | 0.0 | 0.00 | 0.00 | 0.00 | 92 | 1014.1 |
| 20260906043035 | 24 | 37 | 0.0 | 0.0 | 0.00 | 0.00 | 0.00 | 92 | 1014.1 |
| 20260906042534 | 24 | 297 | 0.0 | 0.0 | 0.00 | 0.00 | 0.00 | 92 | 1014.0 |
| 20260906042029 | 24 | 37 | 0.0 | 0.0 | 0.00 | 0.00 | 0.00 | 92 | 1014.2 |
| 20260906041525 | 24 | 44 | 0.0 | 0.0 | 0.00 | 0.00 | 0.00 | 92 | 1014.2 |
| 20260906041025 | 24 | 25 | 0.0 | 0.0 | 0.00 | 0.00 | 0.00 | 92 | 1014.1 |
| 20260906040520 | 24 | 32 | 0.0 | 1.6 | 0.00 | 0.00 | 0.00 | 92 | 1014.2 |
| 20260906040016 | 24 | 62 | 0.0 | 0.0 | 0.00 | 1.22 | 1.22 | 93 | 1014.3 |
| 20260906035510 | 24 | 25 | 0.0 | 0.0 | 0.00 | 1.22 | 1.22 | 93 | 1014.2 |
| 20260906035007 | 24 | 74 | 1.6 | 3.2 | 0.00 | 1.22 | 1.22 | 93 | 1014.3 |
| 20260906034506 | 24 | 37 | 0.0 | 1.6 | 0.00 | 1.22 | 1.22 | 93 | 1014.2 |
| 20260906034001 | 24 | 104 | 0.0 | 0.0 | 0.00 | 1.22 | 1.22 | 93 | 1014.3 |
| 20260906033456 | 24 | 55 | 0.0 | 0.0 | 0.00 | 1.22 | 1.22 | 93 | 1014.2 |
| 20260906032951 | 24 | 52 | 0.0 | 1.6 | 0.00 | 1.22 | 1.22 | 93 | 1014.1 |
| 20260906032448 | 24 | 65 | 0.0 | 0.0 | 0.00 | 1.22 | 1.22 | 92 | 1014.0 |
| 20260906031948 | 24 | 32 | 0.0 | 0.0 | 0.00 | 1.22 | 1.22 | 92 | 1014.3 |
| 20260906031444 | 24 | 51 | 0.0 | 0.0 | 0.00 | 1.22 | 1.22 | 92 | 1014.3 |
| 20260906030939 | 24 | 20 | 0.0 | 0.0 | 0.00 | 1.22 | 1.22 | 92 | 1014.2 |
| 20260906030433 | 24 | 25 | 0.0 | 0.0 | 0.00 | 1.22 | 1.22 | 92 | 1014.1 |
| 20260906025928 | 24 | 37 | 0.0 | 0.0 | 0.00 | 1.22 | 1.22 | 91 | 1014.0 |
| 20260906025428 | 24 | 37 | 0.0 | 0.0 | 0.00 | 1.22 | 1.22 | 91 | 1014.1 |
| 20260906024927 | 25 | 37 | 0.0 | 0.0 | 0.00 | 1.22 | 1.22 | 91 | 1014.0 |
| 20260906024426 | 25 | 322 | 0.0 | 0.0 | 0.00 | 1.22 | 1.22 | 90 | 1013.9 |
| 20260906023922 | 25 | 63 | 0.0 | 0.0 | 0.00 | 1.22 | 1.22 | 90 | 1014.2 |
| 20260906023418 | 25 | 62 | 0.0 | 0.0 | 0.00 | 1.22 | 1.22 | 90 | 1014.1 |
| 20260906022918 | 25 | 321 | 0.0 | 0.0 | 0.00 | 1.22 | 1.22 | 90 | 1013.9 |
| 20260906022413 | 25 | 309 | 0.0 | 0.0 | 0.00 | 1.22 | 1.22 | 90 | 1013.7 |
| 20260906021908 | 25 | 315 | 0.0 | 0.0 | 0.00 | 1.22 | 1.22 | 89 | 1013.8 |
| 20260906021409 | 25 | 309 | 0.0 | 0.0 | 0.00 | 1.22 | 1.22 | 89 | 1013.9 |
| 20260906020903 | 25 | 293 | 0.0 | 0.0 | 0.00 | 1.22 | 1.22 | 88 | 1013.7 |
| 20260906020403 | 25 | 309 | 0.0 | 0.0 | 0.00 | 1.22 | 1.22 | 88 | 1013.8 |
| 20260906015857 | 25 | 309 | 0.0 | 0.0 | 0.00 | 1.22 | 1.22 | 87 | 1013.7 |
| 20260906015356 | 25 | 333 | 0.0 | 0.0 | 0.00 | 1.22 | 1.22 | 87 | 1013.7 |
| 20260906014856 | 25 | 287 | 0.0 | 1.6 | 0.00 | 1.22 | 1.22 | 86 | 1013.7 |
| 20260906014356 | 25 | 255 | 0.0 | 1.6 | 0.00 | 1.22 | 1.22 | 85 | 1013.4 |
| 20260906013853 | 25 | 296 | 0.0 | 1.6 | 0.00 | 1.22 | 1.22 | 84 | 1013.5 |
| 20260906013348 | 25 | 309 | 0.0 | 0.0 | 0.00 | 1.22 | 1.22 | 84 | 1013.4 |
| 20260906012843 | 26 | 272 | 0.0 | 1.6 | 0.00 | 1.22 | 1.22 | 84 | 1013.4 |
| 20260906012338 | 26 | 284 | 0.0 | 1.6 | 0.00 | 1.22 | 1.22 | 82 | 1013.4 |
| 20260906011838 | 26 | 282 | 0.0 | 1.6 | 0.00 | 1.22 | 1.22 | 81 | 1013.7 |
| 20260906011333 | 26 | 69 | 0.0 | 1.6 | 0.00 | 1.22 | 1.22 | 81 | 1013.7 |
| 20260906010829 | 26 | 37 | 0.0 | 3.2 | 0.00 | 1.22 | 1.22 | 80 | 1013.4 |
| 20260906010325 | 26 | 85 | 0.0 | 3.2 | 0.00 | 1.22 | 1.22 | 80 | 1013.5 |
| 20260906005820 | 26 | 42 | 3.2 | 3.2 | 0.00 | 1.22 | 1.22 | 81 | 1013.2 |
| 20260906005319 | 26 | 309 | 0.0 | 0.0 | 0.00 | 1.22 | 1.22 | 81 | 1013.2 |
| 20260906004818 | 26 | 322 | 0.0 | 0.0 | 0.00 | 1.22 | 1.22 | 80 | 1013.3 |
| 20260906004318 | 26 | 306 | 0.0 | 1.6 | 0.00 | 1.22 | 1.22 | 79 | 1013.4 |
| 20260906003813 | 27 | 293 | 1.6 | 3.2 | 0.00 | 1.22 | 1.22 | 78 | 1013.3 |
| 20260906003308 | 27 | 326 | 0.0 | 0.0 | 0.00 | 1.22 | 1.22 | 77 | 1013.4 |
| 20260906002804 | 27 | 296 | 0.0 | 3.2 | 0.00 | 1.22 | 1.22 | 77 | 1013.3 |
| 20260906002306 | 27 | 224 | 0.0 | 3.2 | 0.00 | 1.22 | 1.22 | 75 | 1013.2 |
| 20260906001759 | 27 | 325 | 0.0 | 1.6 | 0.00 | 1.22 | 1.22 | 73 | 1013.1 |
| 20260906001254 | 28 | 21 | 0.0 | 1.6 | 0.00 | 1.22 | 1.22 | 73 | 1013.2 |
| 20260906000750 | 28 | 41 | 0.0 | 3.2 | 0.00 | 1.22 | 1.22 | 73 | 1013.2 |
| 20260906000249 | 28 | 76 | 0.0 | 3.2 | 0.00 | 1.22 | 1.22 | 72 | 1013.2 |
| 20260905235745 | 28 | 326 | 0.0 | 3.2 | 0.00 | 1.22 | 1.22 | 71 | 1013.4 |
| 20260905235244 | 28 | 301 | 0.0 | 3.2 | 0.00 | 1.22 | 1.22 | 71 | 1013.2 |
| 20260905234740 | 28 | 299 | 0.0 | 3.2 | 0.00 | 1.22 | 1.22 | 70 | 1013.3 |
| 20260905234235 | 28 | 117 | 0.0 | 4.8 | 0.00 | 1.22 | 1.22 | 69 | 1013.4 |
| 20260905233730 | 28 | 294 | 0.0 | 3.2 | 0.00 | 1.22 | 1.22 | 70 | 1013.2 |
| 20260905233229 | 29 | 357 | 0.0 | 1.6 | 0.00 | 1.22 | 1.22 | 71 | 1013.1 |
| 20260905232724 | 29 | 343 | 0.0 | 0.0 | 0.00 | 1.22 | 1.22 | 70 | 1013.3 |
| 20260905232220 | 29 | 343 | 0.0 | 1.6 | 0.00 | 1.22 | 1.22 | 70 | 1013.0 |
| 20260905231716 | 30 | 297 | 0.0 | 1.6 | 0.00 | 1.22 | 1.22 | 68 | 1013.2 |
| 20260905231211 | 30 | 50 | 0.0 | 1.6 | 0.00 | 1.22 | 1.22 | 67 | 1013.1 |
| 20260905230707 | 30 | 269 | 0.0 | 3.2 | 0.00 | 1.22 | 1.22 | 66 | 1013.1 |
| 20260905230205 | 30 | 46 | 4.8 | 6.4 | 0.00 | 1.22 | 1.22 | 66 | 1013.1 |
| 20260905225704 | 31 | 139 | 0.0 | 3.2 | 0.00 | 1.22 | 1.22 | 63 | 1012.9 |
| 20260905225200 | 32 | 66 | 1.6 | 4.8 | 0.00 | 1.22 | 1.22 | 61 | 1013.0 |
| 20260905224659 | 32 | 73 | 0.0 | 4.8 | 0.00 | 1.22 | 1.22 | 61 | 1013.1 |
| 20260905224154 | 32 | 243 | 1.6 | 3.2 | 0.00 | 1.22 | 1.22 | 61 | 1012.9 |
| 20260905223651 | 32 | 296 | 0.0 | 4.8 | 0.00 | 1.22 | 1.22 | 60 | 1013.0 |
| 20260905223148 | 33 | 57 | 3.2 | 3.2 | 0.00 | 1.22 | 1.22 | 60 | 1012.9 |
| 20260905222643 | 32 | 16 | 0.0 | 4.8 | 0.00 | 1.22 | 1.22 | 60 | 1012.8 |
| 20260905222143 | 33 | 102 | 0.0 | 3.2 | 0.00 | 1.22 | 1.22 | 60 | 1012.9 |
| 20260905221638 | 33 | 63 | 0.0 | 3.2 | 0.00 | 1.22 | 1.22 | 59 | 1012.9 |
| 20260905221135 | 33 | 72 | 1.6 | 3.2 | 0.00 | 1.22 | 1.22 | 58 | 1013.0 |
| 20260905220630 | 33 | 52 | 4.8 | 4.8 | 0.00 | 1.22 | 1.22 | 60 | 1013.0 |
| 20260905220126 | 33 | 88 | 1.6 | 4.8 | 0.00 | 1.22 | 1.22 | 59 | 1013.0 |
| 20260905215625 | 33 | 48 | 0.0 | 3.2 | 0.00 | 1.22 | 1.22 | 59 | 1013.1 |
| 20260905215121 | 33 | 296 | 0.0 | 4.8 | 0.00 | 1.22 | 1.22 | 60 | 1013.0 |
| 20260905214618 | 33 | 84 | 6.4 | 9.7 | 0.00 | 1.22 | 1.22 | 60 | 1013.3 |
| 20260905214117 | 33 | 129 | 3.2 | 4.8 | 0.00 | 1.22 | 1.22 | 61 | 1013.3 |
| 20260905213613 | 33 | 224 | 0.0 | 6.4 | 0.00 | 1.22 | 1.22 | 61 | 1013.4 |
| 20260905213108 | 33 | 260 | 1.6 | 4.8 | 0.00 | 1.22 | 1.22 | 59 | 1013.5 |
| 20260905212608 | 34 | 97 | 3.2 | 4.8 | 0.00 | 1.22 | 1.22 | 58 | 1013.5 |
| 20260905212108 | 33 | 78 | 3.2 | 6.4 | 0.00 | 1.22 | 1.22 | 58 | 1013.3 |
| 20260905211603 | 33 | 251 | 3.2 | 3.2 | 0.00 | 1.22 | 1.22 | 60 | 1013.2 |
| 20260905211058 | 33 | 274 | 3.2 | 3.2 | 0.00 | 1.22 | 1.22 | 61 | 1013.2 |
| 20260905210554 | 33 | 266 | 1.6 | 3.2 | 0.00 | 1.22 | 1.22 | 64 | 1013.4 |
| 20260905210049 | 33 | 89 | 0.0 | 6.4 | 0.00 | 1.22 | 1.22 | 63 | 1013.1 |
| 20260905205549 | 33 | 64 | 1.6 | 4.8 | 0.00 | 1.22 | 1.22 | 61 | 1013.2 |
| 20260905205048 | 33 | 89 | 0.0 | 1.6 | 0.00 | 1.22 | 1.22 | 65 | 1013.2 |
| 20260905204543 | 33 | 67 | 3.2 | 6.4 | 0.00 | 1.22 | 1.22 | 62 | 1013.4 |
| 20260905204038 | 33 | 92 | 4.8 | 4.8 | 0.00 | 1.22 | 1.22 | 62 | 1013.4 |
| 20260905203538 | 33 | 96 | 3.2 | 4.8 | 0.00 | 1.22 | 1.22 | 66 | 1013.6 |
| 20260905203033 | 33 | 205 | 0.0 | 4.8 | 0.00 | 1.22 | 1.22 | 65 | 1013.6 |
| 20260905202528 | 33 | 111 | 0.0 | 8.0 | 0.00 | 1.22 | 1.22 | 63 | 1013.7 |
| 20260905202024 | 33 | 280 | 1.6 | 3.2 | 0.00 | 1.22 | 1.22 | 65 | 1013.8 |
| 20260905201520 | 33 | 125 | 3.2 | 6.4 | 0.00 | 1.22 | 1.22 | 65 | 1013.9 |
| 20260905201019 | 32 | 236 | 0.0 | 1.6 | 0.00 | 1.22 | 1.22 | 66 | 1014.1 |
| 20260905200515 | 32 | 269 | 1.6 | 3.2 | 0.00 | 1.22 | 1.22 | 67 | 1013.8 |
| 20260905200014 | 33 | 30 | 0.0 | 4.8 | 0.00 | 1.22 | 1.22 | 66 | 1014.0 |
| 20260905195508 | 32 | 284 | 1.6 | 3.2 | 0.00 | 1.22 | 1.22 | 71 | 1013.9 |
| 20260905195004 | 32 | 96 | 4.8 | 6.4 | 0.00 | 1.22 | 1.22 | 65 | 1014.0 |
| 20260905194458 | 31 | 87 | 0.0 | 3.2 | 0.00 | 1.22 | 1.22 | 67 | 1014.1 |
| 20260905193958 | 31 | 93 | 3.2 | 3.2 | 0.00 | 1.22 | 1.22 | 72 | 1014.0 |
| 20260905193458 | 31 | 247 | 0.0 | 1.6 | 0.00 | 1.22 | 1.22 | 78 | 1014.2 |
| 20260905192953 | 31 | 281 | 1.6 | 3.2 | 0.00 | 1.22 | 1.22 | 80 | 1014.2 |
| 20260905192448 | 30 | 296 | 0.0 | 3.2 | 0.00 | 1.22 | 1.22 | 84 | 1014.0 |
| 20260905191944 | 28 | 288 | 1.6 | 1.6 | 0.00 | 1.22 | 1.22 | 85 | 1014.4 |
| 20260905191443 | 28 | 287 | 0.0 | 1.6 | 0.00 | 1.22 | 1.22 | 88 | 1014.4 |
| 20260905190943 | 28 | 284 | 3.2 | 3.2 | 0.00 | 1.22 | 1.22 | 87 | 1014.8 |
| 20260905190441 | 28 | 275 | 3.2 | 3.2 | 0.00 | 1.22 | 1.22 | 90 | 1015.3 |
| 20260905185940 | 28 | 59 | 0.0 | 3.2 | 0.00 | 1.22 | 1.22 | 89 | 1015.3 |
| 20260905185435 | 27 | 15 | 0.0 | 3.2 | 0.00 | 1.22 | 1.22 | 91 | 1014.9 |
| 20260905184933 | 27 | 348 | 0.0 | 3.2 | 0.00 | 1.22 | 1.22 | 88 | 1015.1 |
| 20260905184428 | 27 | 330 | 3.2 | 3.2 | 0.00 | 1.22 | 1.22 | 93 | 1014.9 |
| 20260905183927 | 26 | 338 | 1.6 | 3.2 | 0.00 | 1.22 | 1.22 | 92 | 1014.7 |
| 20260905183422 | 26 | 36 | 1.6 | 4.8 | 0.00 | 1.22 | 1.22 | 96 | 1014.9 |
| 20260905182917 | 25 | 58 | 0.0 | 3.2 | 0.00 | 1.22 | 1.22 | 96 | 1014.7 |
| 20260905182416 | 25 | 37 | 0.0 | 1.6 | 0.00 | 1.22 | 1.22 | 96 | 1014.9 |
| 20260905181912 | 25 | 293 | 1.6 | 3.2 | 0.00 | 1.22 | 1.22 | 96 | 1015.1 |
| 20260905181412 | 24 | 300 | 0.0 | 3.2 | 0.00 | 1.22 | 1.22 | 96 | 1015.5 |
| 20260905180911 | 24 | 32 | 0.0 | 0.0 | 0.00 | 1.22 | 1.22 | 96 | 1015.7 |
| 20260905180407 | 24 | 321 | 0.0 | 3.2 | 0.00 | 1.22 | 1.22 | 96 | 1015.5 |
| 20260905175907 | 23 | 32 | 0.0 | 0.0 | 0.00 | 1.22 | 1.22 | 95 | 1015.6 |
| 20260905175407 | 23 | 322 | 0.0 | 1.6 | 0.00 | 1.22 | 1.22 | 95 | 1015.6 |
| 20260905174907 | 23 | 311 | 0.0 | 1.6 | 0.00 | 1.22 | 1.22 | 94 | 1015.4 |
| 20260905174403 | 23 | 349 | 1.6 | 1.6 | 0.00 | 1.22 | 1.22 | 92 | 1015.5 |
| 20260905173858 | 23 | 321 | 1.6 | 3.2 | 0.00 | 1.22 | 1.22 | 92 | 1015.6 |
| 20260905173355 | 23 | 311 | 1.6 | 1.6 | 0.05 | 1.22 | 1.22 | 93 | 1015.7 |
| 20260905172855 | 23 | 336 | 0.0 | 3.2 | 2.51 | 1.22 | 1.22 | 91 | 1015.8 |
| 20260905172353 | 23 | 31 | 0.0 | 6.4 | 5.77 | 1.19 | 1.19 | 87 | 1016.3 |
| 20260905171849 | 25 | 87 | 4.8 | 14.5 | 4.75 | 0.79 | 0.79 | 85 | 1016.5 |
| 20260905171346 | 29 | 356 | 1.6 | 4.8 | 0.84 | 0.15 | 0.15 | 75 | 1016.2 |
| 20260905170842 | 31 | 67 | 3.2 | 8.0 | 0.00 | 0.00 | 0.00 | 62 | 1015.8 |
| 20260905170338 | 32 | 330 | 3.2 | 3.2 | 0.00 | 0.00 | 0.00 | 63 | 1015.7 |
| 20260905165837 | 32 | 293 | 1.6 | 3.2 | 0.00 | 0.00 | 0.00 | 60 | 1015.5 |
| 20260905165332 | 33 | 296 | 0.0 | 3.2 | 0.00 | 0.00 | 0.00 | 59 | 1015.7 |
| 20260905164832 | 34 | 63 | 0.0 | 4.8 | 0.00 | 0.00 | 0.00 | 56 | 1015.8 |
| 20260905164327 | 33 | 17 | 0.0 | 3.2 | 0.00 | 0.00 | 0.00 | 58 | 1015.9 |
| 20260905163822 | 32 | 300 | 1.6 | 6.4 | 0.00 | 0.00 | 0.00 | 60 | 1015.9 |
| 20260905163319 | 32 | 290 | 3.2 | 4.8 | 0.00 | 0.00 | 0.00 | 61 | 1015.9 |
| 20260905162815 | 32 | 269 | 0.0 | 3.2 | 0.00 | 0.00 | 0.00 | 63 | 1015.8 |
| 20260905162314 | 32 | 123 | 0.0 | 4.8 | 0.00 | 0.00 | 0.00 | 58 | 1015.7 |
| 20260905161809 | 32 | 72 | 1.6 | 4.8 | 0.00 | 0.00 | 0.00 | 62 | 1015.8 |
| 20260905161308 | 32 | 149 | 3.2 | 3.2 | 0.00 | 0.00 | 0.00 | 61 | 1015.9 |
| 20260905160806 | 31 | 269 | 1.6 | 3.2 | 0.00 | 0.00 | 0.00 | 65 | 1015.9 |
| 20260905160300 | 31 | 92 | 3.2 | 3.2 | 0.00 | 0.00 | 0.00 | 64 | 1015.9 |
| 20260905155755 | 31 | 93 | 0.0 | 3.2 | 0.00 | 0.00 | 0.00 | 66 | 1015.8 |
| 20260905155254 | 31 | 86 | 3.2 | 6.4 | 0.00 | 0.00 | 0.00 | 66 | 1015.7 |
| 20260905154748 | 31 | 32 | 0.0 | 4.8 | 0.00 | 0.00 | 0.00 | 67 | 1016.0 |
| 20260905154245 | 31 | 269 | 3.2 | 3.2 | 0.00 | 0.00 | 0.00 | 69 | 1015.9 |
| 20260905153740 | 30 | 27 | 3.2 | 3.2 | 0.00 | 0.00 | 0.00 | 71 | 1015.9 |
| 20260905153236 | 28 | 89 | 0.0 | 1.6 | 0.00 | 0.00 | 0.00 | 76 | 1016.1 |
| 20260905152731 | 28 | 89 | 0.0 | 1.6 | 0.00 | 0.00 | 0.00 | 76 | 1016.1 |
| 20260905152230 | 28 | 89 | 0.0 | 1.6 | 0.00 | 0.00 | 0.00 | 76 | 1016.1 |
| 20260905151730 | 28 | 89 | 0.0 | 1.6 | 0.00 | 0.00 | 0.00 | 76 | 1016.2 |
| 20260905151226 | 28 | 89 | 0.0 | 1.6 | 0.00 | 0.00 | 0.00 | 76 | 1016.1 |
| 20260905150721 | 28 | 89 | 0.0 | 1.6 | 0.00 | 0.00 | 0.00 | 76 | 1016.2 |
| 20260905150220 | 28 | 89 | 0.0 | 1.6 | 0.00 | 0.00 | 0.00 | 76 | 1016.1 |
| 20260905145718 | 28 | 89 | 0.0 | 1.6 | 0.00 | 0.00 | 0.00 | 76 | 1016.3 |
| 20260905145213 | 28 | 89 | 0.0 | 1.6 | 0.00 | 0.00 | 0.00 | 76 | 1016.2 |
| 20260905144712 | 28 | 89 | 0.0 | 1.6 | 0.00 | 0.00 | 0.00 | 76 | 1016.3 |
| 20260905144211 | 28 | 34 | 0.0 | 1.6 | 0.00 | 0.00 | 0.00 | 76 | 1016.1 |
| 20260905143706 | 28 | 75 | 0.0 | 0.0 | 0.00 | 0.00 | 0.00 | 78 | 1016.3 |
| 20260905143206 | 27 | 15 | 0.0 | 1.6 | 0.00 | 0.00 | 0.00 | 79 | 1016.3 |
| 20260905142704 | 27 | 326 | 0.0 | 1.6 | 0.00 | 0.00 | 0.00 | 80 | 1016.3 |
| 20260905142159 | 27 | 85 | 0.0 | 3.2 | 0.00 | 0.00 | 0.00 | 78 | 1016.3 |
| 20260905141654 | 27 | 299 | 0.0 | 1.6 | 0.00 | 0.00 | 0.00 | 81 | 1016.4 |
| 20260905141150 | 27 | 37 | 0.0 | 1.6 | 0.00 | 0.00 | 0.00 | 81 | 1016.5 |
| 20260905140645 | 27 | 333 | 0.0 | 3.2 | 0.00 | 0.00 | 0.00 | 83 | 1016.5 |
| 20260905140144 | 27 | 107 | 0.0 | 4.8 | 0.00 | 0.00 | 0.00 | 82 | 1016.5 |
| 20260905135640 | 26 | 60 | 0.0 | 1.6 | 0.00 | 0.00 | 0.00 | 82 | 1016.4 |
| 20260905135135 | 26 | 66 | 3.2 | 3.2 | 0.00 | 0.00 | 0.00 | 84 | 1016.5 |
| 20260905134630 | 26 | 44 | 1.6 | 1.6 | 0.00 | 0.00 | 0.00 | 84 | 1016.5 |
| 20260905134128 | 26 | 12 | 1.6 | 1.6 | 0.00 | 0.00 | 0.00 | 84 | 1016.4 |
| 20260905133624 | 26 | 12 | 1.6 | 3.2 | 0.00 | 0.00 | 0.00 | 84 | 1016.6 |
| 20260905133124 | 26 | 95 | 3.2 | 3.2 | 0.00 | 0.00 | 0.00 | 84 | 1016.6 |
| 20260905132623 | 26 | 81 | 3.2 | 3.2 | 0.00 | 0.00 | 0.00 | 84 | 1016.5 |
| 20260905132118 | 26 | 304 | 0.0 | 1.6 | 0.00 | 0.00 | 0.00 | 85 | 1016.7 |
| 20260905131614 | 26 | 309 | 0.0 | 0.0 | 0.00 | 0.00 | 0.00 | 86 | 1016.8 |
| 20260905131109 | 25 | 304 | 0.0 | 0.0 | 0.00 | 0.00 | 0.00 | 86 | 1016.8 |
| 20260905130609 | 25 | 22 | 0.0 | 0.0 | 0.00 | 0.00 | 0.00 | 86 | 1016.8 |
| 20260905125603 | 25 | 15 | 0.0 | 1.6 | 0.00 | 0.00 | 0.00 | 88 | 1016.8 |
| 20260905125058 | 25 | 63 | 1.6 | 1.6 | 0.00 | 0.00 | 0.00 | 88 | 1016.8 |
| 20260905124555 | 25 | 19 | 0.0 | 0.0 | 0.00 | 0.00 | 0.00 | 89 | 1016.9 |
| 20260905124051 | 25 | 333 | 0.0 | 0.0 | 0.00 | 0.00 | 0.00 | 89 | 1016.9 |
| 20260905123545 | 24 | 310 | 0.0 | 0.0 | 0.00 | 0.00 | 0.00 | 90 | 1016.8 |
| 20260905123043 | 24 | 296 | 0.0 | 0.0 | 0.00 | 0.00 | 0.00 | 90 | 1016.8 |
| 20260905122542 | 23 | 55 | 0.0 | 0.0 | 0.00 | 0.00 | 0.00 | 92 | 1016.6 |
| 20260905122037 | 23 | 25 | 0.0 | 0.0 | 0.00 | 0.00 | 0.00 | 92 | 1016.8 |
| 20260905121532 | 23 | 44 | 0.0 | 1.6 | 0.00 | 0.00 | 0.00 | 93 | 1016.6 |
| 20260905121027 | 23 | 32 | 0.0 | 0.0 | 0.00 | 0.00 | 0.00 | 93 | 1016.6 |
| 20260905120526 | 23 | 343 | 0.0 | 0.0 | 0.00 | 0.00 | 0.00 | 93 | 1016.3 |
| 20260905120022 | 23 | 37 | 0.0 | 1.6 | 0.00 | 0.00 | 0.00 | 93 | 1016.2 |
| 20260905115520 | 23 | 306 | 1.6 | 3.2 | 0.00 | 0.00 | 0.00 | 93 | 1016.0 |
| 20260905115015 | 23 | 20 | 1.6 | 1.6 | 0.00 | 0.00 | 0.00 | 94 | 1016.1 |
| 20260905114515 | 22 | 29 | 0.0 | 3.2 | 0.00 | 0.00 | 0.00 | 93 | 1016.2 |
| 20260905114014 | 22 | 49 | 3.2 | 3.2 | 0.00 | 0.00 | 0.00 | 93 | 1015.9 |
| 20260905113509 | 22 | 60 | 0.0 | 1.6 | 0.00 | 0.00 | 0.00 | 94 | 1015.8 |
| 20260905113004 | 22 | 12 | 0.0 | 1.6 | 0.00 | 0.00 | 0.00 | 93 | 1015.9 |
| 20260905112459 | 22 | 353 | 0.0 | 1.6 | 0.00 | 0.00 | 0.00 | 93 | 1015.8 |
| 20260905111954 | 22 | 64 | 0.0 | 1.6 | 0.00 | 0.00 | 0.00 | 93 | 1015.9 |
| 20260905111449 | 22 | 15 | 0.0 | 1.6 | 0.00 | 0.00 | 0.00 | 93 | 1015.8 |
| 20260905110944 | 22 | 64 | 0.0 | 1.6 | 0.00 | 0.00 | 0.00 | 93 | 1015.7 |
| 20260905110443 | 22 | 113 | 0.0 | 1.6 | 0.00 | 0.00 | 0.00 | 93 | 1015.7 |
| 20260905105943 | 22 | 49 | 0.0 | 1.6 | 0.00 | 0.00 | 0.00 | 93 | 1015.6 |
| 20260905105437 | 22 | 58 | 1.6 | 1.6 | 0.00 | 0.00 | 0.00 | 93 | 1015.7 |
| 20260905104937 | 22 | 343 | 0.0 | 0.0 | 0.00 | 0.00 | 0.00 | 93 | 1015.6 |
| 20260905104433 | 22 | 37 | 0.0 | 0.0 | 0.00 | 0.00 | 0.00 | 93 | 1015.4 |
| 20260905103932 | 22 | 52 | 0.0 | 3.2 | 0.00 | 0.00 | 0.00 | 93 | 1015.4 |
| 20260905103428 | 23 | 60 | 0.0 | 1.6 | 0.00 | 0.00 | 0.00 | 93 | 1015.3 |
| 20260905102924 | 23 | 55 | 0.0 | 0.0 | 0.00 | 0.00 | 0.00 | 93 | 1015.3 |
| 20260905102420 | 22 | 81 | 0.0 | 3.2 | 0.00 | 0.00 | 0.00 | 94 | 1015.4 |
| 20260905101915 | 23 | 22 | 0.0 | 0.0 | 0.00 | 0.00 | 0.00 | 94 | 1015.4 |